Time,TemperatureF,DewpointF,PressureIn,WindDirection,WindDirectionDegrees,WindSpeedMPH,WindSpeedGustMPH,Humidity,HourlyPrecipIn,Conditions,Clouds,dailyrainin,SoftwareType,DateUTC
2013-11-30 00:09:00,45.3,38.0,30.39,SW,218,3.0,4.0,75,0.00,,,0.00,weatherlink.com 1.10,2013-11-30 06:09:00,
2013-11-30 00:24:00,44.8,38.0,30.38,SW,219,3.0,5.0,77,0.00,,,0.00,weatherlink.com 1.10,2013-11-30 06:24:00,
2013-11-30 00:39:00,44.5,38.0,30.38,SW,217,2.0,3.0,78,0.00,,,0.00,weatherlink.com 1.10,2013-11-30 06:39:00,
2013-11-30 00:54:00,44.4,38.0,30.39,SW,217,2.0,5.0,78,0.00,,,0.00,weatherlink.com 1.10,2013-11-30 06:54:00,
2013-11-30 01:09:00,44.4,38.0,30.38,SSE,162,2.0,3.0,79,0.00,,,0.00,weatherlink.com 1.10,2013-11-30 07:09:00,
2013-11-30 01:24:00,44.3,38.0,30.38,South,186,3.0,4.0,79,0.00,,,0.00,weatherlink.com 1.10,2013-11-30 07:24:00,
2013-11-30 01:39:00,44.3,38.0,30.38,SSW,212,2.0,5.0,79,0.00,,,0.00,weatherlink.com 1.10,2013-11-30 07:39:00,
2013-11-30 01:54:00,43.9,38.0,30.37,SSW,203,2.0,5.0,80,0.00,,,0.00,weatherlink.com 1.10,2013-11-30 07:54:00,
2013-11-30 02:09:00,43.6,38.0,30.36,SSW,198,1.0,4.0,81,0.00,,,0.00,weatherlink.com 1.10,2013-11-30 08:09:00,
2013-11-30 02:24:00,43.3,38.0,30.36,SSW,212,2.0,4.0,81,0.00,,,0.00,weatherlink.com 1.10,2013-11-30 08:24:00,
2013-11-30 02:39:00,43.1,38.0,30.36,SW,220,4.0,5.0,82,0.00,,,0.00,weatherlink.com 1.10,2013-11-30 08:39:00,
2013-11-30 02:54:00,42.7,38.0,30.36,SSW,197,2.0,3.0,83,0.00,,,0.00,weatherlink.com 1.10,2013-11-30 08:54:00,
2013-11-30 03:10:00,42.6,38.0,30.36,SW,219,2.0,5.0,84,0.00,,,0.00,weatherlink.com 1.10,2013-11-30 09:10:00,
2013-11-30 03:25:00,42.5,38.0,30.36,SW,214,5.0,5.0,84,0.00,,,0.00,weatherlink.com 1.10,2013-11-30 09:25:00,
2013-11-30 03:40:00,42.4,38.0,30.36,SW,219,2.0,4.0,84,0.00,,,0.00,weatherlink.com 1.10,2013-11-30 09:40:00,
2013-11-30 03:55:00,42.2,38.0,30.36,SSW,211,2.0,3.0,85,0.00,,,0.00,weatherlink.com 1.10,2013-11-30 09:55:00,
2013-11-30 04:10:00,41.7,38.0,30.36,SSW,211,2.0,2.0,85,0.00,,,0.00,weatherlink.com 1.10,2013-11-30 10:10:00,
2013-11-30 04:25:00,41.6,37.0,30.36,SW,215,0.0,2.0,85,0.00,,,0.00,weatherlink.com 1.10,2013-11-30 10:25:00,
2013-11-30 04:40:00,41.4,38.0,30.36,SW,215,0.0,2.0,86,0.00,,,0.00,weatherlink.com 1.10,2013-11-30 10:40:00,
2013-11-30 04:55:00,41.4,38.0,30.35,SSW,207,1.0,3.0,86,0.00,,,0.00,weatherlink.com 1.10,2013-11-30 10:55:00,
2013-11-30 05:10:00,41.2,38.0,30.35,SSW,212,1.0,2.0,87,0.00,,,0.00,weatherlink.com 1.10,2013-11-30 11:10:00,
2013-11-30 05:25:00,41.4,38.0,30.35,SSW,212,1.0,2.0,87,0.00,,,0.00,weatherlink.com 1.10,2013-11-30 11:25:00,
2013-11-30 05:40:00,41.4,38.0,30.35,SSE,162,2.0,5.0,88,0.00,,,0.00,weatherlink.com 1.10,2013-11-30 11:40:00,
2013-11-30 05:55:00,41.6,38.0,30.35,SSW,206,0.0,3.0,87,0.00,,,0.00,weatherlink.com 1.10,2013-11-30 11:55:00,
2013-11-30 06:10:00,41.6,38.0,30.36,SSW,194,2.0,4.0,88,0.00,,,0.00,weatherlink.com 1.10,2013-11-30 12:10:00,
2013-11-30 06:25:00,41.9,39.0,30.36,SSW,203,2.0,3.0,88,0.00,,,0.00,weatherlink.com 1.10,2013-11-30 12:25:00,
2013-11-30 06:40:00,41.9,39.0,30.36,SSW,210,3.0,4.0,88,0.00,,,0.00,weatherlink.com 1.10,2013-11-30 12:40:00,
2013-11-30 06:55:00,42.7,40.0,30.37,SSW,206,4.0,7.0,89,0.00,,,0.00,weatherlink.com 1.10,2013-11-30 12:55:00,
2013-11-30 07:10:00,43.2,40.0,30.37,SSW,203,6.0,10.0,88,0.00,,,0.00,weatherlink.com 1.10,2013-11-30 13:10:00,
2013-11-30 07:25:00,43.3,40.0,30.37,SSW,208,5.0,10.0,88,0.00,,,0.00,weatherlink.com 1.10,2013-11-30 13:25:00,
2013-11-30 07:40:00,43.7,40.0,30.38,SW,215,5.0,8.0,88,0.00,,,0.00,weatherlink.com 1.10,2013-11-30 13:40:00,
2013-11-30 07:55:00,44.3,41.0,30.38,SSW,210,6.0,9.0,87,0.00,,,0.00,weatherlink.com 1.10,2013-11-30 13:55:00,
2013-11-30 08:10:00,45.2,41.0,30.38,SW,214,7.0,10.0,86,0.00,,,0.00,weatherlink.com 1.10,2013-11-30 14:10:00,
2013-11-30 08:25:00,45.9,42.0,30.37,SSE,165,6.0,10.0,86,0.00,,,0.00,weatherlink.com 1.10,2013-11-30 14:25:00,
2013-11-30 08:40:00,46.5,42.0,30.38,SSW,211,5.0,10.0,85,0.00,,,0.00,weatherlink.com 1.10,2013-11-30 14:40:00,
2013-11-30 08:55:00,47.4,43.0,30.38,SSW,210,8.0,10.0,84,0.00,,,0.00,weatherlink.com 1.10,2013-11-30 14:55:00,
2013-11-30 09:10:00,48.5,43.0,30.39,WSW,238,5.0,8.0,82,0.00,,,0.00,weatherlink.com 1.10,2013-11-30 15:10:00,
2013-11-30 09:25:00,49.5,44.0,30.38,SW,214,4.0,9.0,80,0.00,,,0.00,weatherlink.com 1.10,2013-11-30 15:25:00,
2013-11-30 09:40:00,50.8,44.0,30.38,SW,233,5.0,12.0,77,0.00,,,0.00,weatherlink.com 1.10,2013-11-30 15:40:00,
2013-11-30 09:55:00,52.6,43.0,30.37,South,191,4.0,10.0,71,0.00,,,0.00,weatherlink.com 1.10,2013-11-30 15:55:00,
2013-11-30 10:10:00,53.9,44.0,30.38,SSW,203,7.0,10.0,69,0.00,,,0.00,weatherlink.com 1.10,2013-11-30 16:10:00,
2013-11-30 10:25:00,55.1,44.0,30.37,SW,215,5.0,11.0,67,0.00,,,0.00,weatherlink.com 1.10,2013-11-30 16:25:00,
2013-11-30 10:40:00,56.0,45.0,30.36,SSW,210,7.0,13.0,67,0.00,,,0.00,weatherlink.com 1.10,2013-11-30 16:40:00,
2013-11-30 10:56:00,57.1,47.0,30.36,SSW,202,8.0,13.0,68,0.00,,,0.00,weatherlink.com 1.10,2013-11-30 16:56:00,
2013-11-30 11:11:00,57.7,47.0,30.35,South,182,12.0,16.0,68,0.00,,,0.00,weatherlink.com 1.10,2013-11-30 17:11:00,
2013-11-30 11:26:00,58.6,48.0,30.34,SSW,193,9.0,14.0,67,0.00,,,0.00,weatherlink.com 1.10,2013-11-30 17:26:00,
2013-11-30 11:41:00,59.0,48.0,30.33,South,170,8.0,15.0,67,0.00,,,0.00,weatherlink.com 1.10,2013-11-30 17:41:00,
2013-11-30 11:56:00,60.2,49.0,30.32,SSW,207,6.0,14.0,66,0.00,,,0.00,weatherlink.com 1.10,2013-11-30 17:56:00,
2013-11-30 12:11:00,61.1,49.0,30.30,SSW,205,5.0,13.0,65,0.00,,,0.00,weatherlink.com 1.10,2013-11-30 18:11:00,
2013-11-30 12:26:00,61.8,50.0,30.29,SSE,152,9.0,13.0,65,0.00,,,0.00,weatherlink.com 1.10,2013-11-30 18:26:00,
2013-11-30 12:41:00,63.0,51.0,30.28,SW,233,12.0,14.0,64,0.00,,,0.00,weatherlink.com 1.10,2013-11-30 18:41:00,
2013-11-30 12:56:00,63.9,50.0,30.28,SSW,208,10.0,14.0,62,0.00,,,0.00,weatherlink.com 1.10,2013-11-30 18:56:00,
2013-11-30 13:11:00,64.2,50.0,30.27,SW,224,9.0,16.0,61,0.00,,,0.00,weatherlink.com 1.10,2013-11-30 19:11:00,
2013-11-30 13:26:00,64.6,51.0,30.26,SSE,165,15.0,15.0,62,0.00,,,0.00,weatherlink.com 1.10,2013-11-30 19:26:00,
2013-11-30 13:41:00,65.1,51.0,30.26,SSW,207,8.0,15.0,61,0.00,,,0.00,weatherlink.com 1.10,2013-11-30 19:41:00,
2013-11-30 13:56:00,64.7,51.0,30.25,SSW,193,12.0,15.0,62,0.00,,,0.00,weatherlink.com 1.10,2013-11-30 19:56:00,
2013-11-30 14:11:00,64.1,51.0,30.24,SSW,200,7.0,14.0,63,0.00,,,0.00,weatherlink.com 1.10,2013-11-30 20:11:00,
2013-11-30 14:26:00,64.5,51.0,30.23,ESE,117,9.0,18.0,63,0.00,,,0.00,weatherlink.com 1.10,2013-11-30 20:26:00,
2013-11-30 14:41:00,64.3,51.0,30.23,SSE,162,6.0,14.0,63,0.00,,,0.00,weatherlink.com 1.10,2013-11-30 20:41:00,
2013-11-30 14:56:00,64.1,52.0,30.22,South,191,6.0,13.0,64,0.00,,,0.00,weatherlink.com 1.10,2013-11-30 20:56:00,
2013-11-30 15:11:00,64.4,51.0,30.21,South,179,8.0,15.0,63,0.00,,,0.00,weatherlink.com 1.10,2013-11-30 21:11:00,
2013-11-30 15:26:00,64.5,52.0,30.21,SSW,205,9.0,14.0,64,0.00,,,0.00,weatherlink.com 1.10,2013-11-30 21:26:00,
2013-11-30 15:41:00,65.1,52.0,30.20,SSE,167,8.0,12.0,62,0.00,,,0.00,weatherlink.com 1.10,2013-11-30 21:41:00,
2013-11-30 15:56:00,64.7,52.0,30.19,SW,214,5.0,14.0,63,0.00,,,0.00,weatherlink.com 1.10,2013-11-30 21:56:00,
2013-11-30 16:11:00,64.7,52.0,30.19,South,184,10.0,15.0,63,0.00,,,0.00,weatherlink.com 1.10,2013-11-30 22:11:00,
2013-11-30 16:26:00,64.6,52.0,30.19,SSW,203,9.0,12.0,64,0.00,,,0.00,weatherlink.com 1.10,2013-11-30 22:26:00,
2013-11-30 16:42:00,64.3,52.0,30.19,SSE,158,5.0,10.0,65,0.00,,,0.00,weatherlink.com 1.10,2013-11-30 22:42:00,
2013-11-30 16:57:00,63.7,52.0,30.18,SSE,157,9.0,14.0,66,0.00,,,0.00,weatherlink.com 1.10,2013-11-30 22:57:00,
2013-11-30 17:12:00,62.2,52.0,30.18,SE,143,8.0,13.0,69,0.00,,,0.00,weatherlink.com 1.10,2013-11-30 23:12:00,
2013-11-30 17:27:00,61.4,52.0,30.20,South,170,5.0,9.0,71,0.00,,,0.00,weatherlink.com 1.10,2013-11-30 23:27:00,
2013-11-30 17:42:00,60.7,52.0,30.19,SSE,166,3.0,11.0,73,0.00,,,0.00,weatherlink.com 1.10,2013-11-30 23:42:00,
2013-11-30 17:57:00,60.0,52.0,30.19,SSW,194,5.0,10.0,74,0.00,,,0.00,weatherlink.com 1.10,2013-11-30 23:57:00,
2013-11-30 18:12:00,59.4,51.0,30.20,SSW,195,5.0,10.0,75,0.00,,,0.00,weatherlink.com 1.10,2013-12-01 00:12:00,
2013-11-30 18:27:00,59.1,52.0,30.20,South,172,2.0,10.0,76,0.00,,,0.00,weatherlink.com 1.10,2013-12-01 00:27:00,
2013-11-30 18:42:00,58.9,51.0,30.20,SE,142,5.0,14.0,76,0.00,,,0.00,weatherlink.com 1.10,2013-12-01 00:42:00,
2013-11-30 18:57:00,58.3,51.0,30.20,SSW,194,6.0,10.0,77,0.00,,,0.00,weatherlink.com 1.10,2013-12-01 00:57:00,
2013-11-30 19:12:00,57.6,51.0,30.20,SSW,200,7.0,11.0,78,0.00,,,0.00,weatherlink.com 1.10,2013-12-01 01:12:00,
2013-11-30 19:27:00,57.2,51.0,30.18,SSW,207,8.0,12.0,79,0.00,,,0.00,weatherlink.com 1.10,2013-12-01 01:27:00,
2013-11-30 19:42:00,56.8,51.0,30.19,South,172,8.0,12.0,80,0.00,,,0.00,weatherlink.com 1.10,2013-12-01 01:42:00,
2013-11-30 19:57:00,56.6,51.0,30.20,SSW,204,7.0,13.0,80,0.00,,,0.00,weatherlink.com 1.10,2013-12-01 01:57:00,
2013-11-30 20:12:00,56.4,51.0,30.19,SSW,192,2.0,11.0,81,0.00,,,0.00,weatherlink.com 1.10,2013-12-01 02:12:00,
2013-11-30 20:27:00,56.0,51.0,30.20,SSW,200,6.0,8.0,82,0.00,,,0.00,weatherlink.com 1.10,2013-12-01 02:27:00,
2013-11-30 20:42:00,55.7,51.0,30.19,South,170,2.0,7.0,83,0.00,,,0.00,weatherlink.com 1.10,2013-12-01 02:42:00,
2013-11-30 20:57:00,55.4,51.0,30.19,SSW,195,4.0,8.0,84,0.00,,,0.00,weatherlink.com 1.10,2013-12-01 02:57:00,
2013-11-30 21:12:00,55.1,50.0,30.18,SW,215,1.0,6.0,84,0.00,,,0.00,weatherlink.com 1.10,2013-12-01 03:12:00,
2013-11-30 21:27:00,54.8,50.0,30.19,SW,219,6.0,10.0,85,0.00,,,0.00,weatherlink.com 1.10,2013-12-01 03:27:00,
2013-11-30 21:42:00,54.7,50.0,30.20,SW,227,5.0,9.0,85,0.00,,,0.00,weatherlink.com 1.10,2013-12-01 03:42:00,
2013-11-30 21:57:00,54.1,50.0,30.20,SW,224,3.0,6.0,86,0.00,,,0.00,weatherlink.com 1.10,2013-12-01 03:57:00,
2013-11-30 22:12:00,53.8,50.0,30.20,SSW,210,4.0,8.0,87,0.00,,,0.00,weatherlink.com 1.10,2013-12-01 04:12:00,
2013-11-30 22:27:00,53.5,50.0,30.19,SSW,212,7.0,8.0,87,0.00,,,0.00,weatherlink.com 1.10,2013-12-01 04:27:00,
2013-11-30 22:42:00,53.4,50.0,30.19,SW,218,6.0,10.0,88,0.00,,,0.00,weatherlink.com 1.10,2013-12-01 04:42:00,
2013-11-30 22:57:00,53.6,50.0,30.19,SSW,212,4.0,10.0,88,0.00,,,0.00,weatherlink.com 1.10,2013-12-01 04:57:00,
2013-11-30 23:12:00,53.8,50.0,30.19,SSW,208,6.0,11.0,88,0.00,,,0.00,weatherlink.com 1.10,2013-12-01 05:12:00,
2013-11-30 23:27:00,53.7,51.0,30.19,SSW,202,4.0,8.0,89,0.00,,,0.00,weatherlink.com 1.10,2013-12-01 05:27:00,
2013-11-30 23:42:00,53.8,51.0,30.19,SW,217,5.0,8.0,89,0.00,,,0.00,weatherlink.com 1.10,2013-12-01 05:42:00,
2013-11-30 23:57:00,54.2,51.0,30.19,SSW,201,3.0,8.0,89,0.00,,,0.00,weatherlink.com 1.10,2013-12-01 05:57:00,